Location: ??????????
(48.5701°N, 37.7703°E)
Time: 19:56:58
(UTC+00:00)

Abrixas rocket - Pass Details

Date: 14 July 2020
Orbit: 338 x 346 km, 48.4° (Epoch: 10 August)

Event Time Altitude Azimuth Distance (km) Brightness Sun altitude
Exits shadow 00:02:43 - 277° (W) 1,430 4.7 -12.4°
Reaches altitude 10° 00:03:04 10° 275° (W) 1,283 4.4 -12.4°
Maximum altitude 00:05:52 52° 198° (SSW) 431 1.9 -12.1°
Drops below altitude 10° 00:08:39 10° 120° (ESE) 1,278 4.8 -11.8°
Sets 00:10:41 0° 116° (ESE) 2,115 6.0 -11.6°
